Location: Franzen
(48.6167°N, 15.3833°E)
Time: 10:12:20
(UTC+00:00)

ERS-1 Rocket - Pass Details

Date: 22 April 2021
Orbit: 753 x 757 km, 98.4° (Epoch: 16 May)

Event Time Altitude Azimuth Distance (km) Brightness Sun altitude
Exits shadow 19:53:53 28° 121° (ESE) 1,388 3.8 -16.8°
Maximum altitude 19:56:03 45° 68° (ENE) 1,031 3.5 -17.0°
Drops below altitude 10° 20:00:49 10° 357° (N) 2,290 6.1 -17.6°
Sets 20:03:12 0° 351° (N) 3,219 7.1 -17.9°
